Location: Frankfurt+am+Main
(50.1100°N, 8.4815°E)
Time: 18:41:23
(UTC+02:00)

ISS - Pass Details

Date: 12 February 2018
Orbit: 402 x 406 km, 51.6° (Epoch: 20 June)

Event Time Altitude Azimuth Distance (km) Brightness Sun altitude
Rises 18:25:40 0° 285° (WNW) 2,321 1.3 -8.0°
Reaches altitude 10° 18:27:59 10° 271° (W) 1,458 0.5 -8.4°
Maximum altitude 18:30:40 24° 216° (SW) 887 -1.5 -8.8°
Drops below altitude 10° 18:33:21 10° 160° (SSE) 1,453 -1.1 -9.2°
Enters shadow 18:36:39 -3° 143° (SE) 2,700 0.1 -9.8°
